Change the Weather History Date:

Sunday, March 10, 2013

  Actual Average Record
Temperature  
Mean Temperature 60 °F 49 °F  
Max Temperature 69 °F 61 °F 82 °F (1986)
Min Temperature 51 °F 38 °F 19 °F (1996)
Degree Days  
Heating Degree Days 5 16  
Month to date heating degree days 217 173  
Since 1 July heating degree days 2920 3057  
Cooling Degree Days 0 0  
Month to date cooling degree days 0 0  
Year to date cooling degree days 4 1  
Growing Degree Days 8 (Base 50)    
Moisture  
Dew Point 48 °F    
Average Humidity 68    
Maximum Humidity 100    
Minimum Humidity 36    
Precipitation  
Precipitation 1.65 in 0.13 in 2.07 in (1952)
Month to date precipitation 2.19 1.43  
Year to date precipitation 14.13 9.67  
Snow  
Snow 0.00 in 0.00 in 0.70 in (1983)
Month to date snowfall T 0.1  
Since 1 July snowfall 1.4 4.3  
Snow Depth 0.00 in    
Sea Level Pressure  
Sea Level Pressure 29.85 in    
Wind  
Wind Speed 12 mph (South)    
Max Wind Speed 26 mph    
Max Gust Speed 38 mph    
Visibility 7 miles    
Events Rain    
T = Trace of Precipitation, MM = Missing Value Source: NWS Daily Summary

Daily Weather History Graph

Daily Weather History Graph

Search for Another Location

Airport or City:

Trip Planner

Search our weather history database for the weather conditions in past years. The results will help you decide how hot, cold, wet, or windy it might be!

Date:

Astronomy

Mar. 10, 2013 Rise Set
Actual Time 7:13 AM CDT 6:59 PM CDT
Civil Twilight 6:47 AM CDT 7:24 PM CDT
Nautical Twilight 6:18 AM CDT 7:54 PM CDT
Astronomical Twilight 5:48 AM CDT 8:23 PM CDT
Moon 6:11 AM CDT (3/10) 6:07 PM CDT (3/10)
Length of Visible Light 12h 37m
Length of Day
11h 46m
Waning Crescent, 2% of the Moon is Illuminated
Mar 10
Waning Crescent
Mar 11
New
Mar 19
First Quarter
Mar 27
Full
Apr 2
Last Quarter

Hourly Weather History & Observations

Time (CDT) Temp. Dew Point Humidity Pressure Visibility Wind Dir Wind Speed Gust Speed Precip Events Conditions
12:53 AM 62.1 °F 37.0 °F 39% 29.97 in 10.0 mi South 11.5 mph 19.6 mph N/A   Partly Cloudy
1:53 AM 61.0 °F 37.9 °F 42% 29.97 in 10.0 mi South 12.7 mph - N/A   Clear
3:53 AM 61.0 °F 37.9 °F 42% 29.96 in 10.0 mi South 10.4 mph - N/A   Clear
4:53 AM 61.0 °F 37.9 °F 42% 29.94 in 10.0 mi SSE 10.4 mph 19.6 mph N/A   Clear
5:53 AM 60.1 °F 37.0 °F 42% 29.92 in 10.0 mi SSE 11.5 mph 23.0 mph N/A   Clear
7:53 AM 57.9 °F 39.9 °F 51% 29.92 in 10.0 mi SSE 12.7 mph 23.0 mph N/A   Clear
8:53 AM 59.0 °F 39.9 °F 49% 29.90 in 10.0 mi SSE 13.8 mph 24.2 mph N/A   Clear
9:53 AM 60.1 °F 39.0 °F 46% 29.91 in 10.0 mi SSE 15.0 mph 24.2 mph N/A   Partly Cloudy
10:53 AM 62.1 °F 42.1 °F 48% 29.90 in 10.0 mi SSE 16.1 mph 26.5 mph N/A   Partly Cloudy
11:53 AM 64.9 °F 45.0 °F 48% 29.87 in 10.0 mi SSE 17.3 mph 28.8 mph N/A   Clear
12:53 PM 66.9 °F 48.9 °F 52% 29.86 in 10.0 mi South 21.9 mph 35.7 mph N/A   Scattered Clouds
1:53 PM 66.0 °F 48.9 °F 54% 29.83 in 10.0 mi South 16.1 mph 29.9 mph N/A   Partly Cloudy
2:53 PM 66.0 °F 50.0 °F 56% 29.81 in 10.0 mi South 20.7 mph 35.7 mph N/A   Overcast
3:53 PM 64.0 °F 53.1 °F 67% 29.78 in 10.0 mi South 16.1 mph 34.5 mph 0.02 in Rain Light Rain
4:53 PM 62.1 °F 54.0 °F 75% 29.79 in 8.0 mi SW 16.1 mph 24.2 mph 0.01 in Rain Light Rain
5:05 PM 57.2 °F 53.6 °F 88% 29.80 in 2.5 mi WNW 17.3 mph 29.9 mph 0.08 in Rain Heavy Rain
5:09 PM 55.4 °F 53.6 °F 94% 29.80 in 3.0 mi West 13.8 mph 28.8 mph 0.09 in Rain Light Rain
5:22 PM 53.6 °F 50.0 °F 88% 29.82 in 9.0 mi WNW 13.8 mph - 0.11 in Rain Light Rain
5:50 PM 51.8 °F 50.0 °F 94% 29.86 in 1.8 mi NW 12.7 mph - 0.29 in Rain Heavy Rain
5:53 PM 52.0 °F 50.0 °F 93% 29.85 in 1.8 mi NW 9.2 mph - 0.32 in Rain Heavy Rain
6:01 PM 51.8 °F 50.0 °F 94% 29.81 in 2.0 mi North 6.9 mph - 0.06 in Rain Heavy Rain
6:30 PM 51.8 °F 50.0 °F 94% 29.84 in 1.5 mi Calm Calm - 0.24 in Rain Heavy Rain
6:38 PM 51.8 °F 48.2 °F 88% 29.83 in 3.0 mi North 3.5 mph - 0.28 in Rain Heavy Rain
6:53 PM 51.1 °F 50.0 °F 96% 29.81 in 4.0 mi East 5.8 mph - 0.37 in Rain Heavy Rain
7:53 PM 51.1 °F 50.0 °F 96% 29.81 in 5.0 mi East 5.8 mph - 0.12 in Rain Rain
8:21 PM 51.8 °F 51.8 °F 100% 29.82 in 4.0 mi South 3.5 mph - 0.09 in Rain Rain
8:36 PM 51.8 °F 51.8 °F 100% 29.83 in 5.0 mi South 3.5 mph - 0.14 in Rain Light Rain
8:53 PM 51.1 °F 51.1 °F 100% 29.83 in 4.0 mi Calm Calm - 0.19 in Rain Rain
9:05 PM 51.8 °F 51.8 °F 100% 29.85 in 7.0 mi South 4.6 mph - 0.02 in Rain Light Rain
9:19 PM 51.8 °F 51.8 °F 100% 29.81 in 7.0 mi Calm Calm - 0.05 in Rain Light Rain
9:41 PM 51.8 °F 51.8 °F 100% 29.84 in 8.0 mi SSW 4.6 mph - 0.07 in Rain Rain
9:53 PM 52.0 °F 51.1 °F 97% 29.84 in 4.0 mi SSW 5.8 mph - 0.12 in Rain Rain
10:53 PM 53.1 °F 51.1 °F 93% 29.83 in 7.0 mi South 8.1 mph - 0.23 in Rain Rain
11:53 PM 52.0 °F 51.1 °F 97% 29.82 in 8.0 mi South 5.8 mph - 0.12 in Rain Light Rain
12:20 AM 51.8 °F 51.8 °F 100% 29.84 in 6.0 mi SW 5.8 mph - 0.06 in Rain Rain
12:30 AM 51.8 °F 50.0 °F 94% 29.83 in 5.0 mi SSW 6.9 mph - 0.09 in Rain Rain
12:53 AM 52.0 °F 50.0 °F 93% 29.82 in 7.0 mi South 6.9 mph - 0.15 in Rain Light Rain